Time,TemperatureF,DewpointF,PressureIn,WindDirection,WindDirectionDegrees,WindSpeedMPH,WindSpeedGustMPH,Humidity,HourlyPrecipIn,Conditions,Clouds,dailyrainin,SoftwareType,DateUTC
2014-03-11 00:09:00,57.6,37.0,30.07,West,275,0.0,-999.0,47,-99.99,,,0.00,weatherlink.com 1.10,2014-03-11 07:09:00,
2014-03-11 00:24:00,57.6,37.0,30.07,NNW,340,0.0,-999.0,47,-99.99,,,0.00,weatherlink.com 1.10,2014-03-11 07:24:00,
2014-03-11 00:39:00,57.0,36.0,30.07,NE,48,0.0,-999.0,46,-99.99,,,0.00,weatherlink.com 1.10,2014-03-11 07:39:00,
2014-03-11 00:54:00,56.9,36.0,30.07,NW,317,0.0,-999.0,45,-99.99,,,0.00,weatherlink.com 1.10,2014-03-11 07:54:00,
2014-03-11 01:09:00,56.3,36.0,30.07,NNW,341,0.0,-999.0,46,-99.99,,,0.00,weatherlink.com 1.10,2014-03-11 08:09:00,
2014-03-11 01:24:00,56.0,36.0,30.07,NW,304,0.0,-999.0,47,-99.99,,,0.00,weatherlink.com 1.10,2014-03-11 08:24:00,
2014-03-11 01:39:00,56.0,35.0,30.07,WSW,258,0.0,-999.0,45,-99.99,,,0.00,weatherlink.com 1.10,2014-03-11 08:39:00,
2014-03-11 01:54:00,55.6,35.0,30.07,West,266,0.0,-999.0,46,-99.99,,,0.00,weatherlink.com 1.10,2014-03-11 08:54:00,
2014-03-11 02:09:00,55.4,35.0,30.07,ENE,65,0.0,-999.0,47,-99.99,,,0.00,weatherlink.com 1.10,2014-03-11 09:09:00,
2014-03-11 02:24:00,55.1,34.0,30.07,NNW,348,0.0,-999.0,46,-99.99,,,0.00,weatherlink.com 1.10,2014-03-11 09:24:00,
2014-03-11 02:39:00,54.7,35.0,30.06,NNW,342,0.0,-999.0,47,-99.99,,,0.00,weatherlink.com 1.10,2014-03-11 09:39:00,
2014-03-11 02:54:00,54.5,34.0,30.06,NW,308,0.0,-999.0,46,-99.99,,,0.00,weatherlink.com 1.10,2014-03-11 09:54:00,
2014-03-11 03:10:00,54.7,35.0,30.05,NNW,342,1.0,-999.0,47,-99.99,,,0.00,weatherlink.com 1.10,2014-03-11 10:10:00,
2014-03-11 03:25:00,54.7,33.0,30.04,NW,311,0.0,-999.0,44,-99.99,,,0.00,weatherlink.com 1.10,2014-03-11 10:25:00,
2014-03-11 03:40:00,54.7,32.0,30.04,WNW,286,0.0,-999.0,43,-99.99,,,0.00,weatherlink.com 1.10,2014-03-11 10:40:00,
2014-03-11 03:55:00,54.2,33.0,30.03,WSW,250,0.0,-999.0,44,-99.99,,,0.00,weatherlink.com 1.10,2014-03-11 10:55:00,
2014-03-11 04:10:00,53.6,33.0,30.03,NNW,336,0.0,-999.0,45,-99.99,,,0.00,weatherlink.com 1.10,2014-03-11 11:10:00,
2014-03-11 04:25:00,53.3,31.0,30.02,NE,42,0.0,-999.0,43,-99.99,,,0.00,weatherlink.com 1.10,2014-03-11 11:25:00,
2014-03-11 04:40:00,53.3,31.0,30.01,WNW,301,0.0,-999.0,42,-99.99,,,0.00,weatherlink.com 1.10,2014-03-11 11:40:00,
2014-03-11 04:55:00,53.1,31.0,30.01,SSW,194,0.0,-999.0,43,-99.99,,,0.00,weatherlink.com 1.10,2014-03-11 11:55:00,
2014-03-11 05:10:00,52.8,31.0,30.01,NW,307,0.0,-999.0,43,-99.99,,,0.00,weatherlink.com 1.10,2014-03-11 12:10:00,
2014-03-11 05:25:00,52.5,30.0,30.01,WNW,287,0.0,-999.0,42,-99.99,,,0.00,weatherlink.com 1.10,2014-03-11 12:25:00,
2014-03-11 05:40:00,52.3,30.0,30.01,ENE,64,0.0,-999.0,42,-99.99,,,0.00,weatherlink.com 1.10,2014-03-11 12:40:00,
2014-03-11 05:55:00,52.2,30.0,30.01,WSW,240,0.0,-999.0,42,-99.99,,,0.00,weatherlink.com 1.10,2014-03-11 12:55:00,
2014-03-11 06:10:00,51.9,30.0,30.01,SW,225,0.0,-999.0,43,-99.99,,,0.00,weatherlink.com 1.10,2014-03-11 13:10:00,
2014-03-11 06:25:00,51.3,29.0,30.01,SSE,159,0.0,-999.0,42,-99.99,,,0.00,weatherlink.com 1.10,2014-03-11 13:25:00,
2014-03-11 06:40:00,50.8,29.0,30.01,NNW,343,0.0,-999.0,43,-99.99,,,0.00,weatherlink.com 1.10,2014-03-11 13:40:00,
2014-03-11 06:55:00,51.0,28.0,30.00,NNW,333,0.0,-999.0,42,-99.99,,,0.00,weatherlink.com 1.10,2014-03-11 13:55:00,
2014-03-11 07:10:00,50.7,29.0,30.00,NNW,333,0.0,-999.0,44,-99.99,,,0.00,weatherlink.com 1.10,2014-03-11 14:10:00,
2014-03-11 07:25:00,50.8,28.0,30.00,East,94,0.0,-999.0,42,-99.99,,,0.00,weatherlink.com 1.10,2014-03-11 14:25:00,
2014-03-11 07:40:00,50.7,29.0,30.00,NW,317,0.0,-999.0,43,-99.99,,,0.00,weatherlink.com 1.10,2014-03-11 14:40:00,
2014-03-11 07:55:00,49.9,31.0,30.00,NW,317,0.0,-999.0,48,-99.99,,,0.00,weatherlink.com 1.10,2014-03-11 14:55:00,
2014-03-11 08:10:00,48.8,32.0,30.01,NW,317,0.0,-999.0,53,-99.99,,,0.00,weatherlink.com 1.10,2014-03-11 15:10:00,
2014-03-11 08:25:00,48.6,32.0,30.01,NW,317,0.0,-999.0,54,-99.99,,,0.00,weatherlink.com 1.10,2014-03-11 15:25:00,
2014-03-11 08:40:00,51.9,32.0,30.01,NW,317,0.0,-999.0,46,-99.99,,,0.00,weatherlink.com 1.10,2014-03-11 15:40:00,
2014-03-11 08:55:00,55.0,34.0,30.01,NW,317,0.0,-999.0,45,-99.99,,,0.00,weatherlink.com 1.10,2014-03-11 15:55:00,
2014-03-11 09:10:00,57.8,29.0,30.01,East,98,0.0,-999.0,33,-99.99,,,0.00,weatherlink.com 1.10,2014-03-11 16:10:00,
2014-03-11 09:25:00,59.6,28.0,30.01,East,98,0.0,-999.0,30,-99.99,,,0.00,weatherlink.com 1.10,2014-03-11 16:25:00,
2014-03-11 09:40:00,60.5,27.0,30.01,East,98,0.0,-999.0,28,-99.99,,,0.00,weatherlink.com 1.10,2014-03-11 16:40:00,
2014-03-11 09:55:00,60.7,27.0,30.01,WSW,246,0.0,-999.0,28,-99.99,,,0.00,weatherlink.com 1.10,2014-03-11 16:55:00,
2014-03-11 10:11:00,61.6,29.0,30.01,East,80,0.0,-999.0,29,-99.99,,,0.00,weatherlink.com 1.10,2014-03-11 17:11:00,
2014-03-11 10:25:00,62.3,28.0,30.01,WNW,288,0.0,-999.0,27,-99.99,,,0.00,weatherlink.com 1.10,2014-03-11 17:25:00,
2014-03-11 10:40:00,63.4,29.0,30.01,NW,306,0.0,-999.0,27,-99.99,,,0.00,weatherlink.com 1.10,2014-03-11 17:40:00,
2014-03-11 10:55:00,63.7,30.0,30.01,ENE,61,1.0,-999.0,28,-99.99,,,0.00,weatherlink.com 1.10,2014-03-11 17:55:00,
2014-03-11 11:11:00,64.7,28.0,30.01,ENE,73,1.0,-999.0,25,-99.99,,,0.00,weatherlink.com 1.10,2014-03-11 18:11:00,
2014-03-11 11:26:00,65.3,26.0,30.01,East,86,0.0,-999.0,23,-99.99,,,0.00,weatherlink.com 1.10,2014-03-11 18:26:00,
2014-03-11 11:41:00,65.5,29.0,30.00,West,263,0.0,-999.0,25,-99.99,,,0.00,weatherlink.com 1.10,2014-03-11 18:41:00,
2014-03-11 11:56:00,66.0,26.0,30.00,ENE,62,0.0,-999.0,22,-99.99,,,0.00,weatherlink.com 1.10,2014-03-11 18:56:00,
2014-03-11 12:11:00,66.8,27.0,30.00,SE,142,0.0,-999.0,22,-99.99,,,0.00,weatherlink.com 1.10,2014-03-11 19:11:00,
2014-03-11 12:26:00,67.9,25.0,29.99,SSE,152,2.0,-999.0,20,-99.99,,,0.00,weatherlink.com 1.10,2014-03-11 19:26:00,
2014-03-11 12:41:00,68.1,27.0,29.98,SE,132,3.0,-999.0,21,-99.99,,,0.00,weatherlink.com 1.10,2014-03-11 19:41:00,
2014-03-11 12:56:00,68.6,27.0,29.98,West,280,1.0,-999.0,21,-99.99,,,0.00,weatherlink.com 1.10,2014-03-11 19:56:00,
2014-03-11 13:11:00,69.9,27.0,29.97,SSE,149,1.0,-999.0,20,-99.99,,,0.00,weatherlink.com 1.10,2014-03-11 20:11:00,
2014-03-11 13:26:00,70.8,28.0,29.96,NW,305,1.0,-999.0,20,-99.99,,,0.00,weatherlink.com 1.10,2014-03-11 20:26:00,
2014-03-11 13:41:00,71.1,28.0,29.96,WNW,282,2.0,-999.0,20,-99.99,,,0.00,weatherlink.com 1.10,2014-03-11 20:41:00,
2014-03-11 13:56:00,71.8,27.0,29.95,WNW,299,0.0,-999.0,19,-99.99,,,0.00,weatherlink.com 1.10,2014-03-11 20:56:00,
2014-03-11 14:12:00,72.1,29.0,29.94,ESE,116,3.0,-999.0,20,-99.99,,,0.00,weatherlink.com 1.10,2014-03-11 21:12:00,
2014-03-11 14:27:00,72.0,27.0,29.93,NE,46,2.0,-999.0,19,-99.99,,,0.00,weatherlink.com 1.10,2014-03-11 21:27:00,
2014-03-11 14:41:00,72.3,28.0,29.93,SE,143,3.0,-999.0,19,-99.99,,,0.00,weatherlink.com 1.10,2014-03-11 21:41:00,
2014-03-11 14:56:00,72.1,30.0,29.93,East,98,0.0,-999.0,21,-99.99,,,0.00,weatherlink.com 1.10,2014-03-11 21:56:00,
2014-03-11 15:12:00,72.5,29.0,29.92,SE,140,0.0,-999.0,20,-99.99,,,0.00,weatherlink.com 1.10,2014-03-11 22:12:00,
2014-03-11 15:27:00,72.5,29.0,29.92,SE,136,2.0,-999.0,20,-99.99,,,0.00,weatherlink.com 1.10,2014-03-11 22:27:00,
2014-03-11 15:42:00,73.3,30.0,29.92,ENE,60,0.0,-999.0,20,-99.99,,,0.00,weatherlink.com 1.10,2014-03-11 22:42:00,
2014-03-11 15:57:00,73.9,30.0,29.91,ENE,60,0.0,-999.0,20,-99.99,,,0.00,weatherlink.com 1.10,2014-03-11 22:57:00,
2014-03-11 16:12:00,73.5,30.0,29.91,ESE,112,2.0,-999.0,20,-99.99,,,0.00,weatherlink.com 1.10,2014-03-11 23:12:00,
2014-03-11 16:27:00,73.7,31.0,29.91,North,360,1.0,-999.0,21,-99.99,,,0.00,weatherlink.com 1.10,2014-03-11 23:27:00,
2014-03-11 16:42:00,74.4,31.0,29.90,West,261,1.0,-999.0,20,-99.99,,,0.00,weatherlink.com 1.10,2014-03-11 23:42:00,
2014-03-11 16:57:00,74.6,32.0,29.90,WSW,249,1.0,-999.0,21,-99.99,,,0.00,weatherlink.com 1.10,2014-03-11 23:57:00,
2014-03-11 17:13:00,75.6,32.0,29.90,East,80,0.0,-999.0,20,-99.99,,,0.00,weatherlink.com 1.10,2014-03-12 00:13:00,
2014-03-11 17:28:00,75.3,30.0,29.90,WNW,292,0.0,-999.0,19,-99.99,,,0.00,weatherlink.com 1.10,2014-03-12 00:28:00,
2014-03-11 17:42:00,75.3,32.0,29.90,WNW,300,0.0,-999.0,20,-99.99,,,0.00,weatherlink.com 1.10,2014-03-12 00:42:00,
2014-03-11 17:57:00,73.7,29.0,29.90,WNW,296,0.0,-999.0,19,-99.99,,,0.00,weatherlink.com 1.10,2014-03-12 00:57:00,
2014-03-11 18:13:00,71.6,30.0,29.90,SSE,163,0.0,-999.0,21,-99.99,,,0.00,weatherlink.com 1.10,2014-03-12 01:13:00,
2014-03-11 18:28:00,70.1,29.0,29.90,WNW,296,0.0,-999.0,22,-99.99,,,0.00,weatherlink.com 1.10,2014-03-12 01:28:00,
2014-03-11 18:43:00,69.4,28.0,29.89,NW,325,1.0,-999.0,21,-99.99,,,0.00,weatherlink.com 1.10,2014-03-12 01:43:00,
2014-03-11 18:58:00,68.6,28.0,29.89,NE,56,1.0,-999.0,22,-99.99,,,0.00,weatherlink.com 1.10,2014-03-12 01:58:00,
2014-03-11 19:13:00,67.6,26.0,29.90,WNW,296,0.0,-999.0,21,-99.99,,,0.00,weatherlink.com 1.10,2014-03-12 02:13:00,
2014-03-11 19:28:00,66.9,27.0,29.90,West,262,0.0,-999.0,22,-99.99,,,0.00,weatherlink.com 1.10,2014-03-12 02:28:00,
2014-03-11 19:43:00,66.4,26.0,29.90,West,279,1.0,-999.0,22,-99.99,,,0.00,weatherlink.com 1.10,2014-03-12 02:43:00,
2014-03-11 19:58:00,66.1,26.0,29.90,NW,305,0.0,-999.0,22,-99.99,,,0.00,weatherlink.com 1.10,2014-03-12 02:58:00,
2014-03-11 20:13:00,65.8,25.0,29.90,NW,304,0.0,-999.0,21,-99.99,,,0.00,weatherlink.com 1.10,2014-03-12 03:13:00,
2014-03-11 20:28:00,65.6,24.0,29.90,ESE,121,0.0,-999.0,21,-99.99,,,0.00,weatherlink.com 1.10,2014-03-12 03:28:00,
2014-03-11 20:43:00,65.8,25.0,29.89,East,94,1.0,-999.0,21,-99.99,,,0.00,weatherlink.com 1.10,2014-03-12 03:43:00,
2014-03-11 20:58:00,66.0,25.0,29.89,NNE,30,1.0,-999.0,21,-99.99,,,0.00,weatherlink.com 1.10,2014-03-12 03:58:00,
2014-03-11 21:13:00,66.1,24.0,29.89,NW,306,4.0,-999.0,20,-99.99,,,0.00,weatherlink.com 1.10,2014-03-12 04:13:00,
2014-03-11 21:28:00,65.8,25.0,29.90,WNW,301,1.0,-999.0,21,-99.99,,,0.00,weatherlink.com 1.10,2014-03-12 04:28:00,
2014-03-11 21:43:00,65.2,24.0,29.90,SW,224,1.0,-999.0,21,-99.99,,,0.00,weatherlink.com 1.10,2014-03-12 04:43:00,
2014-03-11 21:58:00,64.8,24.0,29.91,East,94,2.0,-999.0,21,-99.99,,,0.00,weatherlink.com 1.10,2014-03-12 04:58:00,
2014-03-11 22:14:00,64.5,25.0,29.90,ENE,72,3.0,-999.0,22,-99.99,,,0.00,weatherlink.com 1.10,2014-03-12 05:14:00,
2014-03-11 22:29:00,63.9,25.0,29.91,East,84,0.0,-999.0,23,-99.99,,,0.00,weatherlink.com 1.10,2014-03-12 05:29:00,
2014-03-11 22:44:00,63.1,25.0,29.92,NNW,339,2.0,-999.0,23,-99.99,,,0.00,weatherlink.com 1.10,2014-03-12 05:44:00,
2014-03-11 22:59:00,62.3,25.0,29.93,NE,51,1.0,-999.0,24,-99.99,,,0.00,weatherlink.com 1.10,2014-03-12 05:59:00,
2014-03-11 23:14:00,61.6,24.0,29.93,ESE,102,0.0,-999.0,24,-99.99,,,0.00,weatherlink.com 1.10,2014-03-12 06:14:00,
2014-03-11 23:29:00,61.0,23.0,29.94,ESE,107,0.0,-999.0,23,-99.99,,,0.00,weatherlink.com 1.10,2014-03-12 06:29:00,
2014-03-11 23:44:00,60.5,22.0,29.93,SE,137,0.0,-999.0,23,-99.99,,,0.00,weatherlink.com 1.10,2014-03-12 06:44:00,
2014-03-11 23:59:00,59.8,21.0,29.93,South,189,0.0,-999.0,22,-99.99,,,0.00,weatherlink.com 1.10,2014-03-12 06:59:00,